Location: Newark
(58.9986°N, 38.5006°E)
Time: 15:23:57
(UTC+00:00)

Transit 4A - All Passes

Search period start: 23 April 2021 00:00
Search period end: 03 May 2021 00:00
Orbit: 869 x 975 km, 66.8° (Epoch: 23 April)

Date Brightness Start Highest point End Pass type
(mag) Time Alt. Az. Time Alt. Az. Time Alt. Az.
23 Apr - 01:31:46 10° WNW 01:37:31 43° NNE 01:43:08 10° E daylight
23 Apr - 03:18:35 10° NW 03:24:37 77° NE 03:30:29 10° SE daylight
23 Apr - 05:05:15 10° NW 05:10:38 37° WSW 05:15:55 10° S daylight
23 Apr - 18:38:32 10° SE 18:41:03 13° ESE 18:43:32 10° ENE visible
23 Apr - 20:20:12 10° SSW 20:26:04 46° ESE 20:31:48 10° NE visible
23 Apr - 22:06:11 10° WSW 22:12:20 68° NNW 22:18:20 10° NE visible
23 Apr - 23:53:47 10° WNW 23:59:33 41° N 00:05:11 10° ENE visible
24 Apr - 01:41:14 10° NW 01:47:03 46° NNE 01:52:44 10° E daylight
24 Apr - 03:27:57 10° NW 03:33:58 88° SW 03:39:50 10° SE daylight
24 Apr - 05:14:46 10° WNW 05:19:43 28° WSW 05:24:34 10° S daylight
24 Apr - 18:46:05 10° SE 18:49:58 17° ESE 18:53:47 10° ENE visible
24 Apr - 20:29:13 10° SSW 20:35:16 59° SE 20:41:11 10° NE visible
24 Apr - 22:15:42 10° WSW 22:21:46 58° NNW 22:27:41 10° NE visible
25 Apr - 00:03:25 10° WNW 00:09:07 40° N 00:14:42 10° ENE visible
25 Apr - 01:50:42 10° NW 01:56:34 51° NNE 02:02:18 10° E daylight
25 Apr - 03:37:19 10° NW 03:43:15 71° SW 03:49:04 10° SE daylight
25 Apr - 05:24:25 10° WNW 05:28:43 21° WSW 05:32:58 10° SSW daylight
25 Apr - 18:54:14 10° SSE 18:58:56 23° ESE 19:03:34 10° ENE visible
25 Apr - 20:38:21 10° SW 20:44:31 74° SE 20:50:32 10° NE visible
25 Apr - 22:25:16 10° W 22:31:15 51° NNW 22:37:05 10° NE visible
26 Apr - 00:13:00 10° WNW 00:18:42 40° N 00:24:16 10° ENE visible
26 Apr - 02:00:06 10° NW 02:06:03 59° NNE 02:11:50 10° ESE daylight
26 Apr - 03:46:41 10° NW 03:52:30 56° SW 03:58:10 10° SSE daylight
26 Apr - 05:34:18 10° WNW 05:37:40 16° WSW 05:40:59 10° SW daylight
26 Apr - 19:02:42 10° S 19:07:59 30° ESE 19:13:10 10° ENE visible
26 Apr - 20:47:38 10° SW 20:53:50 90° SSE 20:59:53 10° NE visible
26 Apr - 22:34:53 10° W 22:40:46 46° NNW 22:46:30 10° NE visible
27 Apr - 00:22:34 10° WNW 00:28:16 41° N 00:33:51 10° E visible
27 Apr - 02:09:29 10° NW 02:15:29 69° NE 02:21:19 10° ESE daylight
27 Apr - 03:56:05 10° NW 04:01:40 43° WSW 04:07:08 10° SSE daylight
27 Apr - 05:44:59 10° W 05:46:33 11° W 05:48:06 10° WSW daylight
27 Apr - 19:11:26 10° S 19:17:05 39° ESE 19:22:38 10° NE visible
27 Apr - 20:57:01 10° WSW 21:03:12 76° NW 21:09:13 10° NE visible
27 Apr - 22:44:31 10° W 22:50:19 43° NNW 22:55:58 10° ENE visible
28 Apr - 00:32:05 10° WNW 00:37:50 44° NNE 00:43:27 10° E visible
28 Apr - 02:18:51 10° NW 02:24:52 83° NE 02:30:43 10° SE daylight
28 Apr - 04:05:33 10° NW 04:10:47 33° WSW 04:15:55 10° S daylight
28 Apr - 17:38:03 10° SE 17:41:08 14° ESE 17:44:10 10° ENE daylight
28 Apr - 19:20:19 10° SSW 19:26:15 50° SE 19:32:03 10° NE visible
28 Apr - 21:06:30 10° WSW 21:12:37 64° NNW 21:18:34 10° NE visible
28 Apr - 22:54:09 10° WNW 22:59:52 41° N 23:05:28 10° ENE visible
29 Apr - 00:41:32 10° NW 00:47:21 48° NNE 00:53:02 10° E visible
29 Apr - 02:28:13 10° NW 02:34:11 82° SW 02:40:02 10° SE daylight
29 Apr - 04:15:06 10° WNW 04:19:50 25° WSW 04:24:30 10° SSW daylight
29 Apr - 17:45:53 10° SSE 17:50:04 19° ESE 17:54:12 10° ENE daylight
29 Apr - 19:29:23 10° SSW 19:35:28 64° SE 19:41:25 10° NE visible
29 Apr - 21:16:03 10° WSW 21:22:04 56° NNW 21:27:56 10° NE visible
29 Apr - 23:03:46 10° WNW 23:09:27 40° N 23:15:00 10° ENE visible
30 Apr - 00:50:58 10° NW 00:56:52 54° NNE 01:02:36 10° ESE daylight
30 Apr - 02:37:34 10° NW 02:43:28 66° SW 02:49:13 10° SSE daylight
30 Apr - 04:24:49 10° WNW 04:28:49 19° WSW 04:32:46 10° SSW daylight
30 Apr - 17:54:09 10° SSE 17:59:04 26° ESE 18:03:55 10° ENE daylight
30 Apr - 19:38:35 10° SW 19:44:45 80° SE 19:50:46 10° NE visible
30 Apr - 21:25:38 10° W 21:31:33 49° NNW 21:37:20 10° NE visible
30 Apr - 23:13:20 10° WNW 23:19:01 40° N 23:24:35 10° ENE visible
01 May - 01:00:22 10° NW 01:06:19 62° NNE 01:12:08 10° ESE daylight
01 May - 02:46:58 10° NW 02:52:41 51° SW 02:58:17 10° SSE daylight
01 May - 04:34:52 10° WNW 04:37:45 14° WSW 04:40:35 10° SW daylight
01 May - 18:02:43 10° S 18:08:08 33° ESE 18:13:26 10° NE visible
01 May - 19:47:53 10° SW 19:54:04 85° NW 20:00:06 10° NE visible
01 May - 21:35:15 10° W 21:41:05 45° NNW 21:46:46 10° ENE visible
01 May - 23:22:53 10° WNW 23:28:35 42° N 23:34:10 10° E visible
02 May - 01:09:45 10° NW 01:15:44 74° NE 01:21:35 10° ESE daylight
02 May - 02:56:22 10° NW 03:01:50 40° WSW 03:07:11 10° S daylight
02 May - 16:30:32 10° ESE 16:32:20 11° E 16:34:07 10° E daylight
02 May - 18:11:31 10° S 18:17:16 43° ESE 18:22:53 10° NE visible
02 May - 19:57:19 10° WSW 20:03:27 72° NW 20:09:27 10° NE visible
02 May - 21:44:53 10° W 21:50:38 42° N 21:56:15 10° ENE visible
02 May - 23:32:22 10° WNW 23:38:08 45° NNE 23:43:46 10° E visible
